Location: Observatory
(52.1446°N, 0.4624°W)
Time: 05:03:35
(UTC+00:00)

ISS - Pass Details

Date: 20 January 2021
Orbit: 418 x 421 km, 51.6° (Epoch: 23 January)

Event Time Altitude Azimuth Distance (km) Brightness Sun altitude
Rises 19:14:24 0° 231° (SW) 2,364 0.8 -25.0°
Reaches altitude 10° 19:16:35 10° 223° (SW) 1,503 -0.4 -25.3°
Enters shadow 19:17:38 18° 214° (SW) 1,117 -1.3 -25.5°
